Volver al catálogo

FENGYUN 1C DEB

ActivoSSO
NORAD 38496·DEBRIS·🇨🇳 China

Lanzado May 10, 1999 desde Taiyuan Satellite Launch Center

Loading…

Próximos Pases (próximas 24 horas)

TLE

ActualizadoSource: Space-Track

Época: Sep 14, 2026, 07:07 UTC

1 38496U 99025ESF 26257.29689876  .00000854  00000-0  48901-3 0  9994
2 38496  98.7627 265.0678 0076031 306.6787  52.7413 14.10710383849055

Sigue FENGYUN 1C DEB en tiempo real con AllMySat

Download on the App Store